Location: Oregon Star Party
(44.2935°N, 120.1332°W)
Time: 01:49:35
(UTC-07:00)

Amateur Radio Satellites - All Passes

Search period start: 27 August 2014 01:19
Search period end: 28 August 2014 01:19
Location: Oregon Star Party, 44.2935°N, 120.1332°W

Satellite Date Start Highest point End Downlink Frequencies (MHz)
Time Altitude Azimuth
Oscar 16 27 Aug 01:44:52 01:49:06 25° 94° (E) 01:53:18 437.025 USB, Beacon 2401.1428
Uribyol 2 27 Aug 01:47:00 01:48:20 11° 87° (E) 01:49:40 436.500 FM
AO-27 27 Aug 02:02:25 02:05:25 15° 90° (E) 02:08:24 436.795 MHz FM
Sapphire 27 Aug 02:05:07 02:09:47 28° 45° (NE) 02:14:25 437.095 MHz 1200 baud AX-25 AFSK
AO-Echo 27 Aug 02:11:37 02:14:54 19° 92° (E) 02:18:11 ?
JAS-1B 27 Aug 02:20:57 02:26:21 23° 88° (E) 02:31:10 435.800 - 435.900 CW/SSB
KITSAT 1 27 Aug 02:27:57 02:35:25 39° 318° (NW) 02:42:54 435.175 FM
PCSat 27 Aug 02:34:49 02:40:04 46° 52° (NE) 02:45:16 145.825 MHz
Oscar 19 27 Aug 02:49:18 02:54:32 89° 105° (ESE) 02:59:44 437.125 CW, 437.150 USB
TMSAT-1 27 Aug 03:00:44 03:04:19 18° 91° (E) 03:07:53 436.925 FM
ITAMSAT 1 27 Aug 03:12:18 03:17:28 66° 102° (ESE) 03:22:37 435.822 SSB
OPAL 27 Aug 03:13:10 03:16:54 21° 59° (ENE) 03:20:41 ?
Uribyol 2 27 Aug 03:23:20 03:28:33 87° 105° (ESE) 03:33:45 436.500 FM
Oscar 16 27 Aug 03:23:42 03:28:38 45° 291° (WNW) 03:33:33 437.025 USB, Beacon 2401.1428
AO-27 27 Aug 03:40:17 03:45:27 71° 287° (WNW) 03:50:36 436.795 MHz FM
Gurwin Techsat 1B 27 Aug 03:45:07 03:50:24 61° 101° (E) 03:55:38 435.225 FM
Sapphire 27 Aug 03:48:13 03:53:31 54° 245° (WSW) 03:58:46 437.095 MHz 1200 baud AX-25 AFSK
AO-Echo 27 Aug 03:49:27 03:53:59 49° 289° (WNW) 03:58:29 ?
JAS-1B 27 Aug 04:10:38 04:17:45 60° 292° (WNW) 04:23:46 435.800 - 435.900 CW/SSB
PCSat 27 Aug 04:18:39 04:23:15 29° 251° (WSW) 04:27:49 145.825 MHz
SO-50 27 Aug 04:21:26 04:25:03 24° 113° (ESE) 04:28:43 436.795 FM
KITSAT 1 27 Aug 04:28:33 04:33:30 17° 345° (NNW) 04:38:28 435.175 FM
Oscar 19 27 Aug 04:30:32 04:33:08 14° 303° (WNW) 04:35:44 437.125 CW, 437.150 USB
Uosat F 27 Aug 04:36:26 04:40:36 26° 95° (E) 04:44:46 435.120 FM
TMSAT-1 27 Aug 04:39:26 04:44:40 62° 288° (WNW) 04:49:53 436.925 FM
Oscar 10/S400 27 Aug 04:39:39 05:47:35 26° 243° (WSW) 08:50:45 145.825 - 145.975 CW/USB, Beacon 145.810 USB
AO-7 27 Aug 04:48:34 04:56:18 41° 98° (E) 05:03:56 29.400 - 29.500 MHz
OPAL 27 Aug 04:50:25 04:55:22 56° 257° (WSW) 05:00:25 ?
ITAMSAT 1 27 Aug 04:52:58 04:56:27 19° 300° (WNW) 04:59:57 435.822 SSB
Uribyol 2 27 Aug 05:04:37 05:07:19 14° 303° (WNW) 05:10:01 436.500 FM
AO-27 27 Aug 05:22:51 05:24:02 11° 306° (NW) 05:25:13 436.795 MHz FM
Gurwin Techsat 1B 27 Aug 05:26:06 05:29:54 20° 299° (WNW) 05:33:42 435.225 FM
SO-50 27 Aug 06:01:04 06:05:22 43° 312° (NW) 06:09:47 436.795 FM
JAS-1B 27 Aug 06:03:50 06:06:33 12° 316° (NW) 06:09:07 435.800 - 435.900 CW/SSB
Uosat F 27 Aug 06:14:51 06:19:30 40° 292° (WNW) 06:24:08 435.120 FM
KITSAT 1 27 Aug 06:27:39 06:32:46 18° 16° (NNE) 06:37:51 435.175 FM
STRAND 1 27 Aug 06:27:45 06:32:41 51° 70° (ENE) 06:37:37 ?
AO-7 27 Aug 06:41:19 06:49:13 50° 298° (WNW) 06:57:03 29.400 - 29.500 MHz
UOSAT-12 27 Aug 06:42:11 06:46:37 48° 119° (ESE) 06:51:09 437.025 FM, 437.400 FM
Hamsat 27 Aug 06:43:56 06:48:13 51° 99° (E) 06:52:25 145.90 MHz
SO-67 27 Aug 07:11:06 07:12:40 13° 91° (E) 07:14:14 435.3500 MHz FM
JAS-2 27 Aug 07:14:36 07:19:49 82° 104° (ESE) 07:25:17 435.800 - 435.900 CW/SSB, 435.910 FM
SO-50 27 Aug 07:45:58 07:47:10 11° 334° (NNW) 07:48:22 436.795 FM
Saudisat 1A 27 Aug 07:50:05 07:54:12 36° 47° (NE) 07:58:17 436.775 MHz
RS-15 27 Aug 07:56:23 08:06:25 42° 109° (ESE) 08:16:17 29.354 - 29.394 USB, Beacon 29.352 USB
STRAND 1 27 Aug 08:08:21 08:12:09 21° 267° (W) 08:15:58 ?
Hamsat 27 Aug 08:20:56 08:23:46 17° 297° (WNW) 08:26:36 145.90 MHz
UOSAT-12 27 Aug 08:23:02 08:27:00 27° 318° (NW) 08:31:02 437.025 FM, 437.400 FM
KITSAT 1 27 Aug 08:23:07 08:30:43 42° 44° (NE) 08:38:15 435.175 FM
AO-7 27 Aug 08:36:38 08:40:03 13° 320° (NW) 08:43:28 29.400 - 29.500 MHz
SO-67 27 Aug 08:42:40 08:45:56 40° 287° (WNW) 08:49:11 435.3500 MHz FM
HO-68 27 Aug 08:47:08 08:51:57 19° 90° (E) 08:56:43 435.675 MHz FM
JAS-2 27 Aug 09:01:39 09:04:19 14° 302° (WNW) 09:07:02 435.800 - 435.900 CW/SSB, 435.910 FM
Saudisat 1A 27 Aug 09:29:52 09:33:41 29° 245° (WSW) 09:37:27 436.775 MHz
UKube-1 27 Aug 09:49:24 09:53:03 26° 95° (E) 09:56:41 145.840 MHz, 145.915 MHz
Oscar 11 27 Aug 09:59:39 10:03:06 22° 93° (E) 10:06:31 145.825 FM, Beacon 2401.500 USB
RS-15 27 Aug 10:07:23 10:18:17 63° 312° (NW) 10:29:09 29.354 - 29.394 USB, Beacon 29.352 USB
FUNcube-1 27 Aug 10:15:42 10:18:05 14° 90° (E) 10:20:29 145.950 - 145.970 MHz USB
KITSAT 1 27 Aug 10:18:34 10:26:23 56° 246° (WSW) 10:34:10 435.175 FM
HO-68 27 Aug 10:33:16 10:40:28 84° 288° (WNW) 10:47:37 435.675 MHz FM
SO-50 27 Aug 11:12:16 11:13:10 10° 25° (NNE) 11:14:04 436.795 FM
UKube-1 27 Aug 11:25:26 11:29:16 31° 292° (WNW) 11:33:05 145.840 MHz, 145.915 MHz
ISS 27 Aug 11:33:04 11:35:25 18° 134° (SE) 11:37:46 145.800 FM
Oscar 11 27 Aug 11:35:22 11:39:23 36° 290° (WNW) 11:43:23 145.825 FM, Beacon 2401.500 USB
FUNcube-1 27 Aug 11:50:25 11:54:52 63° 286° (WNW) 11:59:22 145.950 - 145.970 MHz USB
HO-68 27 Aug 12:22:29 12:27:10 19° 308° (NW) 12:31:52 435.675 MHz FM
RS-15 27 Aug 12:24:18 12:33:22 28° 343° (NNW) 12:42:31 29.354 - 29.394 USB, Beacon 29.352 USB
Oscar 19 27 Aug 12:30:14 12:34:04 22° 62° (ENE) 12:37:55 437.125 CW, 437.150 USB
SO-50 27 Aug 12:50:34 12:55:03 39° 47° (NE) 12:59:35 436.795 FM
ITAMSAT 1 27 Aug 12:55:02 12:58:16 17° 59° (ENE) 13:01:31 435.822 SSB
Oscar 16 27 Aug 13:03:13 13:08:02 42° 68° (ENE) 13:12:54 437.025 USB, Beacon 2401.1428
JAS-1B 27 Aug 13:04:29 13:12:52 35° 60° (ENE) 13:20:32 435.800 - 435.900 CW/SSB
Uribyol 2 27 Aug 13:05:12 13:09:03 22° 62° (ENE) 13:12:55 436.500 FM
ISS 27 Aug 13:08:32 13:11:50 67° 332° (NNW) 13:15:09 145.800 FM
MaSat-1 27 Aug 13:20:51 13:24:08 18° 101° (ESE) 13:27:34 437.345 MHz
AO-27 27 Aug 13:21:40 13:26:03 29° 65° (ENE) 13:30:27 436.795 MHz FM
AO-Echo 27 Aug 13:25:40 13:30:06 31° 67° (ENE) 13:34:25 ?
Gurwin Techsat 1B 27 Aug 13:30:35 13:33:52 17° 59° (ENE) 13:37:08 435.225 FM
UOSAT-12 27 Aug 13:31:14 13:33:54 15° 32° (NNE) 13:36:33 437.025 FM, 437.400 FM
AO-7 27 Aug 14:01:12 14:05:56 17° 44° (NE) 14:10:39 29.400 - 29.500 MHz
Oscar 19 27 Aug 14:07:58 14:13:01 55° 260° (W) 14:18:07 437.125 CW, 437.150 USB
TMSAT-1 27 Aug 14:22:44 14:27:25 33° 66° (ENE) 14:32:08 436.925 FM
SO-50 27 Aug 14:31:19 14:35:32 31° 245° (WSW) 14:39:47 436.795 FM
ITAMSAT 1 27 Aug 14:32:02 14:37:11 72° 257° (WSW) 14:42:23 435.822 SSB
RS-15 27 Aug 14:41:07 14:50:19 29° 19° (NNE) 14:59:41 29.354 - 29.394 USB, Beacon 29.352 USB
Uribyol 2 27 Aug 14:43:07 14:48:09 54° 260° (W) 14:53:13 436.500 FM
Oscar 16 27 Aug 14:43:16 14:47:32 26° 266° (W) 14:51:51 437.025 USB, Beacon 2401.1428
ISS 27 Aug 14:46:11 14:48:59 24° 351° (N) 14:51:47 145.800 FM
JAS-1B 27 Aug 14:52:57 15:02:48 70° 258° (WSW) 15:11:49 435.800 - 435.900 CW/SSB
MaSat-1 27 Aug 14:55:46 15:00:39 64° 300° (WNW) 15:05:50 437.345 MHz
AO-27 27 Aug 15:00:35 15:05:25 39° 262° (W) 15:10:17 436.795 MHz FM
AO-Echo 27 Aug 15:04:14 15:08:49 33° 263° (W) 15:13:17 ?
Gurwin Techsat 1B 27 Aug 15:07:54 15:13:12 76° 257° (WSW) 15:18:32 435.225 FM
UOSAT-12 27 Aug 15:10:14 15:14:58 66° 52° (NE) 15:19:37 437.025 FM, 437.400 FM
AO-7 27 Aug 15:48:57 15:57:08 63° 65° (ENE) 16:05:19 29.400 - 29.500 MHz
Uosat F 27 Aug 15:51:05 15:55:48 43° 69° (ENE) 16:00:32 435.120 FM
TMSAT-1 27 Aug 16:02:31 16:07:18 34° 264° (W) 16:12:07 436.925 FM
ISS 27 Aug 16:23:33 16:26:25 26° 11° (NNE) 16:29:17 145.800 FM
MaSat-1 27 Aug 16:36:17 16:38:47 14° 321° (NW) 16:41:19 437.345 MHz
JAS-1B 27 Aug 16:48:58 16:54:30 16° 275° (W) 16:59:52 435.800 - 435.900 CW/SSB
Sapphire 27 Aug 16:50:50 16:53:52 15° 104° (ESE) 16:56:54 437.095 MHz 1200 baud AX-25 AFSK
UOSAT-12 27 Aug 16:51:37 16:54:36 17° 250° (WSW) 16:57:33 437.025 FM, 437.400 FM
RS-15 27 Aug 16:54:19 17:05:18 65° 49° (NE) 17:16:40 29.354 - 29.394 USB, Beacon 29.352 USB
OPAL 27 Aug 16:58:47 17:03:29 33° 98° (E) 17:08:10 ?
PCSat 27 Aug 17:18:46 17:23:22 29° 109° (ESE) 17:28:00 145.825 MHz
JAS-2 27 Aug 17:28:19 17:34:08 42° 69° (ENE) 17:39:23 435.800 - 435.900 CW/SSB, 435.910 FM
Uosat F 27 Aug 17:30:44 17:34:46 24° 266° (W) 17:38:48 435.120 FM
Hamsat 27 Aug 17:38:41 17:42:46 44° 71° (ENE) 17:46:54 145.90 MHz
AO-7 27 Aug 17:43:11 17:50:22 32° 265° (W) 17:57:36 29.400 - 29.500 MHz
ISS 27 Aug 18:00:10 18:03:30 82° 30° (NNE) 18:06:50 145.800 FM
Sapphire 27 Aug 18:31:10 18:36:34 80° 302° (WNW) 18:42:02 437.095 MHz 1200 baud AX-25 AFSK
OPAL 27 Aug 18:37:38 18:42:20 35° 296° (WNW) 18:47:02 ?
STRAND 1 27 Aug 18:38:09 18:41:01 15° 90° (E) 18:43:52 ?
PCSat 27 Aug 19:01:24 19:06:35 45° 308° (NW) 19:11:48 145.825 MHz
RS-15 27 Aug 19:07:11 19:17:10 41° 251° (WSW) 19:27:31 29.354 - 29.394 USB, Beacon 29.352 USB
JAS-2 27 Aug 19:13:48 19:19:19 31° 264° (W) 19:24:20 435.800 - 435.900 CW/SSB, 435.910 FM
Hamsat 27 Aug 19:15:59 19:18:57 18° 269° (W) 19:21:57 145.90 MHz
SO-67 27 Aug 19:16:44 19:20:12 80° 77° (ENE) 19:23:41 435.3500 MHz FM
HO-68 27 Aug 19:18:35 19:23:20 20° 52° (NE) 19:28:04 435.675 MHz FM
ISS 27 Aug 19:37:55 19:39:50 15° 227° (SW) 19:41:44 145.800 FM
STRAND 1 27 Aug 20:15:38 20:20:43 71° 287° (WNW) 20:25:47 ?
Sapphire 27 Aug 20:17:19 20:20:53 18° 323° (NW) 20:24:28 437.095 MHz 1200 baud AX-25 AFSK
UKube-1 27 Aug 20:46:31 20:50:15 29° 67° (ENE) 20:54:00 145.840 MHz, 145.915 MHz
PCSat 27 Aug 20:49:32 20:51:27 12° 331° (NNW) 20:53:22 145.825 MHz
Oscar 11 27 Aug 20:56:31 20:59:52 22° 65° (ENE) 21:03:15 145.825 FM, Beacon 2401.500 USB
HO-68 27 Aug 21:02:55 21:10:04 85° 72° (ENE) 21:17:15 435.675 MHz FM
FUNcube-1 27 Aug 21:14:41 21:16:45 14° 61° (ENE) 21:18:50 145.950 - 145.970 MHz USB
STRAND 1 27 Aug 21:58:01 21:59:00 11° 305° (NW) 21:59:58 ?
UKube-1 27 Aug 22:22:39 22:26:24 28° 264° (W) 22:30:11 145.840 MHz, 145.915 MHz
Oscar 11 27 Aug 22:31:49 22:35:50 37° 263° (W) 22:39:54 145.825 FM, Beacon 2401.500 USB
FUNcube-1 27 Aug 22:48:30 22:52:38 63° 259° (W) 22:56:51 145.950 - 145.970 MHz USB
HO-68 27 Aug 22:53:55 22:58:36 18° 271° (W) 23:03:19 435.675 MHz FM
KITSAT 1 27 Aug 22:56:14 23:01:23 19° 101° (E) 23:06:31 435.175 FM
MaSat-1 27 Aug 23:12:17 23:16:56 47° 56° (ENE) 23:21:00 437.345 MHz
Saudisat 1A 27 Aug 23:37:07 23:41:21 48° 119° (ESE) 23:45:37 436.775 MHz
KITSAT 1 28 Aug 00:47:30 00:55:36 85° 121° (ESE) 01:03:44 435.175 FM
MaSat-1 28 Aug 00:50:16 00:53:30 19° 258° (WSW) 00:56:27 437.345 MHz
